"Period start","avg(HW err(1)/warn(2) (#))","avg(Visibility (m))","avg(Weather code (#))","avg(Precip intensity (mm/h))","min(HW err(1)/warn(2) (#))","max(HW err(1)/warn(2) (#))","std(HW err(1)/warn(2) (#))","med(HW err(1)/warn(2) (#))","min(Visibility (m))","max(Visibility (m))","std(Visibility (m))","med(Visibility (m))","min(Weather code (#))","max(Weather code (#))","std(Weather code (#))","med(Weather code (#))","min(Precip intensity (mm/h))","max(Precip intensity (mm/h))","std(Precip intensity (mm/h))","med(Precip intensity (mm/h))"
2014-10-12 00:00:00,2,40476,0,0.00,2,2,0,2,34625,48652,5307,37832,0,0,0,0,0.00,0.00,0.00,0.00
2014-10-12 00:10:00,2,42021,0,0.00,2,2,0,2,34820,47664,3973,41542,0,0,0,0,0.00,0.00,0.00,0.00
2014-10-12 00:20:00,2,40826,0,0.00,2,2,0,2,33884,48843,4968,40292,0,0,0,0,0.00,0.00,0.00,0.00
2014-10-12 00:30:00,2,36770,0,0.00,2,2,0,2,31739,45378,4277,35341,0,0,0,0,0.00,0.00,0.00,0.00
2014-10-12 00:40:00,2,40798,0,0.00,2,2,0,2,36115,47970,3183,40928,0,0,0,0,0.00,0.00,0.00,0.00
2014-10-12 00:50:00,2,34538,0,0.00,2,2,0,2,23452,43017,5042,35034,0,0,0,0,0.00,0.00,0.00,0.00
2014-10-12 01:00:00,2,40108,0,0.00,2,2,0,2,32928,45525,3785,40511,0,0,0,0,0.00,0.00,0.00,0.00
2014-10-12 01:10:00,2,35363,0,0.00,2,2,0,2,31839,38740,2048,35428,0,0,0,0,0.00,0.00,0.00,0.00
2014-10-12 01:20:00,2,35610,0,0.00,2,2,0,2,29967,44316,3924,34563,0,0,0,0,0.00,0.00,0.00,0.00
2014-10-12 01:30:00,2,38602,0,0.00,2,2,0,2,32317,45571,3671,38727,0,0,0,0,0.00,0.00,0.00,0.00
2014-10-12 01:40:00,2,33126,0,0.00,2,2,0,2,25969,39445,3829,33734,0,0,0,0,0.00,0.00,0.00,0.00
2014-10-12 01:50:00,2,33068,0,0.00,2,2,0,2,28034,38378,2994,33402,0,0,0,0,0.00,0.00,0.00,0.00
2014-10-12 02:00:00,2,34322,0,0.00,2,2,0,2,27720,39909,3382,33842,0,0,0,0,0.00,0.00,0.00,0.00
2014-10-12 02:10:00,2,34537,0,0.00,2,2,0,2,30598,37901,2497,34581,0,0,0,0,0.00,0.00,0.00,0.00
2014-10-12 02:20:00,2,35332,0,0.00,2,2,0,2,27730,44937,5423,36108,0,0,0,0,0.00,0.00,0.00,0.00
2014-10-12 02:30:00,2,30383,0,0.00,2,2,0,2,24735,36640,3496,29754,0,0,0,0,0.00,0.00,0.00,0.00
2014-10-12 02:40:00,2,32346,0,0.00,2,2,0,2,27460,40377,4263,30848,0,0,0,0,0.00,0.00,0.00,0.00
2014-10-12 02:50:00,2,30678,0,0.00,2,2,0,2,23291,36681,4368,31502,0,0,0,0,0.00,0.00,0.00,0.00
2014-10-12 03:00:00,2,37832,0,0.00,2,2,0,2,30793,42048,3562,38378,0,0,0,0,0.00,0.00,0.00,0.00
2014-10-12 03:10:00,2,38316,0,0.00,2,2,0,2,30133,45470,5085,39402,0,0,0,0,0.00,0.00,0.00,0.00
2014-10-12 03:20:00,2,31924,0,0.00,2,2,0,2,29615,37578,2275,31465,0,0,0,0,0.00,0.00,0.00,0.00
2014-10-12 03:30:00,2,22720,0,0.00,2,2,0,2,20100,26875,1769,22685,0,0,0,0,0.00,0.00,0.00,0.00
2014-10-12 03:40:00,2,27249,0,0.00,2,2,0,2,21920,31653,3193,27336,0,0,0,0,0.00,0.00,0.00,0.00
2014-10-12 03:50:00,2,24669,0,0.00,2,2,0,2,19051,31184,3705,24562,0,0,0,0,0.00,0.00,0.00,0.00
2014-10-12 04:00:00,2,20438,29,0.00,2,2,0,2,10604,24531,3727,21506,0,71,31,20,0.00,0.00,0.00,0.00
2014-10-12 04:10:00,2,33194,0,0.00,2,2,0,2,26305,38424,4092,33696,0,0,0,0,0.00,0.00,0.00,0.00
2014-10-12 04:20:00,2,31776,0,0.00,2,2,0,2,25697,36317,3161,32333,0,0,0,0,0.00,0.00,0.00,0.00
2014-10-12 04:30:00,2,32054,0,0.00,2,2,0,2,28290,34352,2087,32455,0,0,0,0,0.00,0.00,0.00,0.00
2014-10-12 04:40:00,2,31879,0,0.00,2,2,0,2,26245,39415,4734,30776,0,0,0,0,0.00,0.00,0.00,0.00
2014-10-12 04:50:00,2,30170,0,0.00,2,2,0,2,26112,36056,3183,30278,0,0,0,0,0.00,0.00,0.00,0.00
2014-10-12 05:00:00,2,28153,0,0.00,2,2,0,2,22805,35135,3502,27542,0,0,0,0,0.00,0.00,0.00,0.00
2014-10-12 05:10:00,2,33785,0,0.00,2,2,0,2,30474,39120,2260,33290,0,0,0,0,0.00,0.00,0.00,0.00
2014-10-12 05:20:00,2,32118,0,0.00,2,2,0,2,28743,36809,2728,31568,0,0,0,0,0.00,0.00,0.00,0.00
2014-10-12 05:30:00,2,32949,0,0.00,2,2,0,2,26244,39061,3411,32470,0,0,0,0,0.00,0.00,0.00,0.00
2014-10-12 05:40:00,2,31571,0,0.00,2,2,0,2,26683,36552,3243,30866,0,0,0,0,0.00,0.00,0.00,0.00
2014-10-12 05:50:00,2,30743,0,0.00,2,2,0,2,28231,33449,1762,29948,0,0,0,0,0.00,0.00,0.00,0.00
2014-10-12 06:00:00,2,29411,0,0.00,2,2,0,2,25280,33218,2644,29510,0,0,0,0,0.00,0.00,0.00,0.00
2014-10-12 06:10:00,2,35202,0,0.00,2,2,0,2,30299,40273,3445,34700,0,0,0,0,0.00,0.00,0.00,0.00
2014-10-12 06:20:00,2,33836,0,0.00,2,2,0,2,31204,38263,2051,33260,0,0,0,0,0.00,0.00,0.00,0.00
2014-10-12 06:30:00,2,34949,0,0.00,2,2,0,2,27722,38645,3000,35498,0,0,0,0,0.00,0.00,0.00,0.00
2014-10-12 06:40:00,2,33664,0,0.00,2,2,0,2,30955,37019,1881,33822,0,0,0,0,0.00,0.00,0.00,0.00
2014-10-12 06:50:00,2,38863,0,0.00,2,2,0,2,32276,50000,5524,37166,0,0,0,0,0.00,0.00,0.00,0.00
2014-10-12 07:00:00,2,41731,0,0.00,2,2,0,2,38704,47208,2877,41324,0,0,0,0,0.00,0.00,0.00,0.00
2014-10-12 07:10:00,2,44423,0,0.00,2,2,0,2,34809,50000,4385,44936,0,0,0,0,0.00,0.00,0.00,0.00
2014-10-12 07:20:00,2,44344,0,0.00,2,2,0,2,39803,50000,3519,42787,0,0,0,0,0.00,0.00,0.00,0.00
2014-10-12 07:30:00,2,45078,0,0.00,2,2,0,2,37293,49871,3927,45952,0,0,0,0,0.00,0.00,0.00,0.00
2014-10-12 07:40:00,2,34875,0,0.00,2,2,0,2,29871,40153,3734,34959,0,0,0,0,0.00,0.00,0.00,0.00
2014-10-12 07:50:00,2,29291,22,0.00,2,2,0,2,14089,40528,8302,30941,0,71,29,0,0.00,0.00,0.00,0.00
2014-10-12 08:00:00,2,24069,15,0.00,2,2,0,2,20227,27688,2906,24396,0,71,24,0,0.00,0.00,0.00,0.00
2014-10-12 08:10:00,2,23778,36,0.02,2,2,0,2,14184,30465,4652,24692,0,71,32,40,0.00,0.10,0.03,0.00
2014-10-12 08:20:00,2,24115,43,0.01,2,2,0,2,20607,26118,1894,24576,0,71,35,71,0.00,0.10,0.03,0.00
2014-10-12 08:30:00,2,23494,52,0.01,2,2,0,2,17623,27055,2877,24168,0,77,34,71,0.00,0.05,0.02,0.00
2014-10-12 08:40:00,2,21382,75,0.01,2,2,0,2,12159,24955,3374,22348,71,77,3,77,0.00,0.15,0.05,0.00
2014-10-12 08:50:00,2,19279,71,0.02,2,2,0,2,13802,26661,3723,17944,71,71,0,71,0.00,0.10,0.03,0.00
2014-10-12 09:00:00,2,24794,52,0.01,2,2,0,2,16486,27963,3297,25600,0,77,34,71,0.00,0.15,0.05,0.00
2014-10-12 09:10:00,2,22457,14,0.01,2,2,0,2,9970,30170,6079,23556,0,71,28,0,0.00,0.05,0.02,0.00
2014-10-12 09:20:00,2,17640,71,0.02,2,2,0,2,12346,22586,2892,17784,71,71,0,71,0.00,0.05,0.02,0.00
2014-10-12 09:30:00,2,19208,71,0.01,2,2,0,2,15675,23030,2624,19842,71,71,0,71,0.00,0.05,0.02,0.00
2014-10-12 09:40:00,2,24539,66,0.01,2,2,0,2,20362,28420,2908,24409,0,77,22,71,0.00,0.05,0.02,0.00
2014-10-12 09:50:00,2,22054,36,0.02,2,2,0,2,15361,29550,5411,22088,0,77,36,36,0.00,0.05,0.02,0.00
2014-10-12 10:00:00,2,15348,72,0.05,2,2,0,2,11120,21854,3239,14882,71,77,2,71,0.00,0.20,0.07,0.00
2014-10-12 10:10:00,2,13251,71,0.06,2,2,0,2,5583,19339,3640,13648,71,71,0,71,0.00,0.35,0.10,0.03
2014-10-12 10:20:00,2,13983,71,0.10,2,2,0,2,8802,17359,2442,14338,71,71,0,71,0.00,0.45,0.13,0.05
2014-10-12 10:30:00,2,14871,71,0.02,2,2,0,2,11085,17688,1823,15141,71,71,0,71,0.00,0.05,0.02,0.00
2014-10-12 10:40:00,2,11810,71,0.11,2,2,0,2,8363,16543,2320,11279,71,71,0,71,0.00,0.60,0.17,0.05
2014-10-12 10:50:00,2,10542,71,0.24,2,2,0,2,4125,15275,3399,11056,71,71,0,71,0.00,1.35,0.38,0.12
2014-10-12 11:00:00,2,10776,71,0.12,2,2,0,2,7521,14169,2027,11011,71,71,0,71,0.00,0.30,0.10,0.10
2014-10-12 11:10:00,2,8493,71,0.23,2,2,0,2,5831,11175,1736,7718,71,71,0,71,0.05,0.80,0.22,0.17
2014-10-12 11:20:00,2,5948,71,0.36,2,2,0,2,2118,12222,3190,5390,71,71,0,71,0.00,1.10,0.35,0.20
2014-10-12 11:30:00,2,3557,71,0.89,2,2,0,2,2259,4994,937,3614,71,71,0,71,0.30,1.70,0.44,0.83
2014-10-12 11:40:00,2,5548,71,0.42,2,2,0,2,2697,9775,1899,5388,71,71,0,71,0.10,1.10,0.29,0.42
2014-10-12 11:50:00,2,6613,71,0.37,2,2,0,2,3958,13277,2607,5812,71,71,0,71,0.00,0.90,0.28,0.25
2014-10-12 12:00:00,2,9317,71,0.30,2,2,0,2,6232,13291,2393,8836,71,71,0,71,0.00,0.75,0.28,0.17
2014-10-12 12:10:00,2,7552,71,0.40,2,2,0,2,5048,10993,2056,6965,71,71,0,71,0.05,0.85,0.25,0.42
2014-10-12 12:20:00,2,6663,71,0.18,2,2,0,2,4924,8993,1271,6454,71,71,0,71,0.00,0.45,0.12,0.20
2014-10-12 12:30:00,2,6440,71,0.32,2,2,0,2,3745,9736,1767,6556,71,71,0,71,0.05,0.55,0.15,0.35
2014-10-12 12:40:00,2,4716,71,0.43,2,2,0,2,2779,8377,1698,4389,71,71,0,71,0.05,0.75,0.21,0.45
2014-10-12 12:50:00,2,3546,71,0.83,2,2,0,2,2248,4803,734,3772,71,71,0,71,0.40,1.55,0.35,0.80
2014-10-12 13:00:00,2,5099,71,0.35,2,2,0,2,3545,7721,1232,4684,71,71,0,71,0.10,0.75,0.23,0.28
2014-10-12 13:10:00,2,4602,71,0.67,2,2,0,2,2613,7775,1620,4218,71,71,0,71,0.25,1.15,0.29,0.68
2014-10-12 13:20:00,2,5113,71,0.52,2,2,0,2,3382,7880,1260,5084,71,71,0,71,0.05,1.00,0.28,0.55
2014-10-12 13:30:00,2,3223,71,1.02,2,2,0,2,2060,5441,907,2878,71,71,0,71,0.35,1.75,0.41,0.95
2014-10-12 13:40:00,2,3564,71,1.11,2,2,0,2,2481,4945,621,3562,71,71,0,71,0.50,2.20,0.51,1.02
2014-10-12 13:50:00,2,3922,71,0.96,2,2,0,2,2949,5045,630,3934,71,71,0,71,0.30,1.50,0.42,1.02
2014-10-12 14:00:00,2,4433,71,0.73,2,2,0,2,2560,6638,1183,4408,71,71,0,71,0.10,1.50,0.38,0.73
2014-10-12 14:10:00,2,3877,71,0.91,2,2,0,2,2633,5481,795,3760,71,71,0,71,0.35,1.65,0.38,0.88
2014-10-12 14:20:00,2,4022,71,0.70,2,2,0,2,3061,5360,604,4004,71,71,0,71,0.40,1.50,0.30,0.62
2014-10-12 14:30:00,2,5364,71,0.39,2,2,0,2,3399,6916,1035,5478,71,71,0,71,0.15,0.75,0.20,0.30
2014-10-12 14:40:00,2,5033,71,0.52,2,2,0,2,3534,7573,1288,4472,71,71,0,71,0.15,0.95,0.28,0.45
2014-10-12 14:50:00,2,4922,71,0.69,2,2,0,2,3023,7617,1326,4810,71,71,0,71,0.25,1.00,0.20,0.65
2014-10-12 15:00:00,2,6530,71,0.36,2,2,0,2,4442,10249,1495,6346,71,71,0,71,0.15,0.70,0.16,0.35
2014-10-12 15:10:00,2,8977,71,0.20,2,2,0,2,5919,12214,1975,8582,71,71,0,71,0.05,0.45,0.16,0.15
2014-10-12 15:20:00,2,11713,72,0.09,2,2,0,2,8193,14812,2088,11165,71,77,2,71,0.00,0.25,0.08,0.08
2014-10-12 15:30:00,2,9346,72,0.21,2,2,0,2,6161,11421,1285,9500,71,77,2,71,0.05,0.50,0.15,0.15
2014-10-12 15:40:00,2,9900,71,0.15,2,2,0,2,8751,12121,882,9854,71,71,0,71,0.05,0.25,0.08,0.15
2014-10-12 15:50:00,2,11816,71,0.11,2,2,0,2,9434,13757,1441,11862,71,71,0,71,0.05,0.15,0.04,0.10
2014-10-12 16:00:00,2,12970,73,0.07,2,2,0,2,11173,14282,1077,12974,71,77,3,71,0.00,0.20,0.06,0.05
2014-10-12 16:10:00,2,12508,72,0.11,2,2,0,2,11698,13457,571,12489,71,77,2,71,0.05,0.45,0.12,0.05
2014-10-12 16:20:00,2,9524,71,0.21,2,2,0,2,4938,14708,3328,9087,71,71,0,71,0.00,0.60,0.20,0.20
2014-10-12 16:30:00,2,5441,71,0.45,2,2,0,2,3953,6195,816,6036,71,71,0,71,0.05,1.15,0.35,0.33
2014-10-12 16:40:00,2,5292,71,0.26,2,2,0,2,3910,6608,886,5454,71,71,0,71,0.10,0.50,0.15,0.17
2014-10-12 16:50:00,2,5786,74,0.14,2,2,0,2,3832,8882,1397,5789,71,77,3,74,0.00,0.40,0.14,0.05
2014-10-12 17:00:00,2,7364,72,0.14,2,2,0,2,3975,9813,1922,7874,71,77,2,71,0.00,0.45,0.16,0.05
2014-10-12 17:10:00,2,3813,71,0.50,2,2,0,2,3351,4550,368,3626,71,71,0,71,0.25,0.75,0.16,0.50
2014-10-12 17:20:00,2,6030,73,0.15,2,2,0,2,4994,7142,584,5954,71,77,3,71,0.10,0.30,0.07,0.10
2014-10-12 17:30:00,2,6761,72,0.21,2,2,0,2,5466,8089,741,6875,71,77,2,71,0.05,0.55,0.16,0.15
2014-10-12 17:40:00,2,5533,71,0.69,2,2,0,2,4990,7036,555,5487,71,71,0,71,0.25,1.10,0.26,0.65
2014-10-12 17:50:00,2,5118,71,0.70,2,2,0,2,4230,5839,480,5160,71,71,0,71,0.50,1.30,0.22,0.65
2014-10-12 18:00:00,2,7083,71,0.45,2,2,0,2,5187,9403,1314,7084,71,71,0,71,0.20,0.90,0.20,0.45
2014-10-12 18:10:00,2,9744,73,0.21,2,2,0,2,7251,12575,1781,9616,71,77,3,71,0.05,0.55,0.14,0.17
2014-10-12 18:20:00,2,6972,72,0.26,2,2,0,2,5959,7733,537,7000,71,77,2,71,0.15,0.40,0.07,0.25
2014-10-12 18:30:00,2,9917,74,0.17,2,2,0,2,7878,15003,1888,9354,71,77,3,74,0.05,0.30,0.08,0.17
2014-10-12 18:40:00,2,20213,72,0.04,2,2,0,2,15195,24018,2916,20534,71,77,2,71,0.00,0.15,0.05,0.05
2014-10-12 18:50:00,2,18376,73,0.08,2,2,0,2,14311,22092,2342,18458,71,77,3,71,0.00,0.25,0.07,0.05
2014-10-12 19:00:00,2,11005,71,0.24,2,2,0,2,9760,12031,789,11052,71,71,0,71,0.15,0.35,0.06,0.20
2014-10-12 19:10:00,2,14323,71,0.11,2,2,0,2,10646,17515,2426,14734,71,71,0,71,0.00,0.45,0.12,0.08
2014-10-12 19:20:00,2,26869,75,0.01,2,2,0,2,19166,39756,6723,24881,71,77,3,77,0.00,0.05,0.02,0.00
2014-10-12 19:30:00,2,46015,8,0.00,2,2,0,2,40434,50000,3565,46142,0,77,23,0,0.00,0.00,0.00,0.00
2014-10-12 19:40:00,2,40477,0,0.00,2,2,0,2,33018,50000,4940,41367,0,0,0,0,0.00,0.00,0.00,0.00
2014-10-12 19:50:00,2,39017,75,0.00,2,2,0,2,28564,50000,6700,39271,71,78,3,77,0.00,0.00,0.00,0.00
2014-10-12 20:00:00,2,39236,78,0.01,2,2,0,2,31836,47435,5320,39068,77,78,0,78,0.00,0.05,0.02,0.00
2014-10-12 20:10:00,2,49563,16,0.00,2,2,0,2,47732,50000,710,50000,0,78,31,0,0.00,0.00,0.00,0.00
2014-10-12 20:20:00,2,50000,0,0.00,2,2,0,2,50000,50000,0,50000,0,0,0,0,0.00,0.00,0.00,0.00
2014-10-12 20:30:00,2,49380,0,0.00,2,2,0,2,46371,50000,1166,50000,0,0,0,0,0.00,0.00,0.00,0.00
2014-10-12 20:40:00,2,49994,0,0.00,2,2,0,2,49935,50000,20,50000,0,0,0,0,0.00,0.00,0.00,0.00
2014-10-12 20:50:00,2,49080,0,0.00,2,2,0,2,47241,50000,1106,49856,0,0,0,0,0.00,0.00,0.00,0.00
2014-10-12 21:00:00,2,49857,0,0.00,2,2,0,2,48569,50000,429,50000,0,0,0,0,0.00,0.00,0.00,0.00
2014-10-12 21:10:00,2,49868,0,0.00,2,2,0,2,49045,50000,295,50000,0,0,0,0,0.00,0.00,0.00,0.00
2014-10-12 21:20:00,2,49973,0,0.00,2,2,0,2,49728,50000,82,50000,0,0,0,0,0.00,0.00,0.00,0.00
2014-10-12 21:30:00,2,50000,0,0.00,2,2,0,2,50000,50000,0,50000,0,0,0,0,0.00,0.00,0.00,0.00
2014-10-12 21:40:00,2,49927,0,0.00,2,2,0,2,49273,50000,218,50000,0,0,0,0,0.00,0.00,0.00,0.00
2014-10-12 21:50:00,2,50000,0,0.00,2,2,0,2,50000,50000,0,50000,0,0,0,0,0.00,0.00,0.00,0.00
2014-10-12 22:00:00,2,50000,0,0.00,2,2,0,2,50000,50000,0,50000,0,0,0,0,0.00,0.00,0.00,0.00
2014-10-12 22:10:00,2,50000,0,0.00,2,2,0,2,50000,50000,0,50000,0,0,0,0,0.00,0.00,0.00,0.00
2014-10-12 22:20:00,2,50000,0,0.00,2,2,0,2,50000,50000,0,50000,0,0,0,0,0.00,0.00,0.00,0.00
2014-10-12 22:30:00,2,50000,0,0.00,2,2,0,2,50000,50000,0,50000,0,0,0,0,0.00,0.00,0.00,0.00
2014-10-12 22:40:00,2,50000,0,0.00,2,2,0,2,50000,50000,0,50000,0,0,0,0,0.00,0.00,0.00,0.00
2014-10-12 22:50:00,2,50000,0,0.00,2,2,0,2,50000,50000,0,50000,0,0,0,0,0.00,0.00,0.00,0.00
2014-10-12 23:00:00,2,50000,0,0.00,2,2,0,2,50000,50000,0,50000,0,0,0,0,0.00,0.00,0.00,0.00
2014-10-12 23:10:00,2,49957,0,0.00,2,2,0,2,49697,50000,94,50000,0,0,0,0,0.00,0.00,0.00,0.00
2014-10-12 23:20:00,2,49987,0,0.00,2,2,0,2,49867,50000,40,50000,0,0,0,0,0.00,0.00,0.00,0.00
2014-10-12 23:30:00,2,49691,0,0.00,2,2,0,2,47537,50000,742,50000,0,0,0,0,0.00,0.00,0.00,0.00
2014-10-12 23:40:00,2,50000,0,0.00,2,2,0,2,50000,50000,0,50000,0,0,0,0,0.00,0.00,0.00,0.00
"Period start","avg(HW err(1)/warn(2) (#))","avg(Visibility (m))","avg(Weather code (#))","avg(Precip intensity (mm/h))","min(HW err(1)/warn(2) (#))","max(HW err(1)/warn(2) (#))","std(HW err(1)/warn(2) (#))","med(HW err(1)/warn(2) (#))","min(Visibility (m))","max(Visibility (m))","std(Visibility (m))","med(Visibility (m))","min(Weather code (#))","max(Weather code (#))","std(Weather code (#))","med(Weather code (#))","min(Precip intensity (mm/h))","max(Precip intensity (mm/h))","std(Precip intensity (mm/h))","med(Precip intensity (mm/h))"
2014-10-12 23:50:00,2,49936,0,0.00,2,2,0,2,49361,50000,192,50000,0,0,0,0,0.00,0.00,0.00,0.00
